Location: Ebendorf
(52.1827°N, 11.5706°E)
Time: 08:08:24
(UTC+00:00)

Meteor 1-28 Rocket - Pass Details

Date: 15 May 2021
Orbit: 504 x 521 km, 97.4° (Epoch: 23 June)

Event Time Altitude Azimuth Distance (km) Brightness Sun altitude
Exits shadow 01:17:58 - 152° (SSE) 2,043 5.9 -13.7°
Reaches altitude 10° 01:18:45 10° 150° (SSE) 1,718 5.6 -13.6°
Maximum altitude 01:22:22 56° 72° (ENE) 613 3.8 -13.3°
Drops below altitude 10° 01:26:03 10° 354° (N) 1,740 6.7 -13.0°
Sets 01:28:10 0° 350° (N) 2,634 7.6 -12.8°
